H1 CPF 2 NER 2024 8 4 9 217 01 glonass139 H2 1808601 9139 43687 2024 8 4 0 0 0 2024 8 7 23 45 0 900 1 1 0 0 0 1 H9 10 0 60526 0.00000 0 11155275.906 -39878.924 22964552.035 10 0 60526 900.00000 0 11622061.652 2723247.982 22566923.529 10 0 60526 1800.00000 0 12269112.778 5372062.236 21732143.592 10 0 60526 2700.00000 0 13067525.175 7844763.858 20476295.969 10 0 60526 3600.00000 0 13978431.712 10086637.068 18823609.216 10 0 60526 4500.00000 0 14954650.712 12052074.347 16805999.967 10 0 60526 5400.00000 0 15942702.629 13706226.023 14462468.466 10 0 60526 6300.00000 0 16885111.552 15026207.435 11838356.698 10 0 60526 7200.00000 0 17722895.872 16001813.677 8984482.098 10 0 60526 8100.00000 0 18398144.066 16635712.139 5956162.411 10 0 60526 9000.00000 0 18856567.376 16943104.634 2812149.634 10 0 60526 9900.00000 0 19049921.502 16950873.052 -386506.826 10 0 60526 10800.00000 0 18938194.355 16696244.231 -3577645.947 10 0 60526 11700.00000 0 18491466.305 16225030.180 -6699206.593 10 0 60526 12600.00000 0 17691362.725 15589517.960 -9690440.614 10 0 60526 13500.00000 0 16532035.689 14846098.654 -12493103.170 10 0 60526 14400.00000 0 15020631.419 14052736.170 -15052596.162 10 0 60526 15300.00000 0 13177221.884 13266383.654 -17319041.471 10 0 60526 16200.00000 0 11034201.660 12540457.660 -19248262.173 10 0 60526 17100.00000 0 8635173.901 11922477.799 -20802651.790 10 0 60526 18000.00000 0 6033371.042 11451972.571 -21951913.956 10 0 60526 18900.00000 0 3289675.535 11158740.655 -22673657.693 10 0 60526 19800.00000 0 470322.885 11061541.699 -22953836.409 10 0 60526 20700.00000 0 -2355617.290 11167272.267 -22787022.025 10 0 60526 21600.00000 0 -5118877.215 11470661.872 -22176508.950 10 0 60526 22500.00000 0 -7752634.073 11954501.787 -21134246.073 10 0 60526 23400.00000 0 -10195050.194 12590396.641 -19680598.370 10 0 60526 24300.00000 0 -12391604.734 13340006.571 -17843943.119 10 0 60526 25200.00000 0 -14297120.140 14156726.803 -15660108.977 10 0 60526 26100.00000 0 -15877399.641 14987733.024 -13171669.350 10 0 60526 27000.00000 0 -17110408.551 15776305.366 -10427104.363 10 0 60526 27900.00000 0 -17986951.503 16464332.103 -7479848.360 10 0 60526 28800.00000 0 -18510819.024 16994886.625 -4387242.192 10 0 60526 29700.00000 0 -18698399.327 17314768.301 -1209411.386 10 0 60526 30600.00000 0 -18577773.725 17376899.596 1991907.320 10 0 60526 31500.00000 0 -18187335.726 17142478.074 5154567.626 10 0 60526 32400.00000 0 -17573993.773 16582792.547 8217219.766 10 0 60526 33300.00000 0 -16791034.803 15680627.020 11120497.458 10 0 60526 34200.00000 0 -15895739.673 14431193.576 13808162.775 10 0 60526 35100.00000 0 -14946851.412 12842555.242 16228187.182 10 0 60526 36000.00000 0 -14002002.933 10935521.174 18333748.591 10 0 60526 36900.00000 0 -13115211.966 8743018.468 20084126.099 10 0 60526 37800.00000 0 -12334547.723 6308966.356 21445476.313 10 0 60526 38700.00000 0 -11700066.219 3686698.984 22391477.532 10 0 60526 39600.00000 0 -11242099.780 937001.245 22903830.477 10 0 60526 40500.00000 0 -10979971.434 -1874162.168 22972606.902 10 0 60526 41400.00000 0 -10921187.238 -4678131.991 22596440.028 10 0 60526 42300.00000 0 -11061139.951 -7406152.646 21782553.373 10 0 60526 43200.00000 0 -11383336.419 -9991977.716 20546627.283 10 0 60526 44100.00000 0 -11860139.512 -12374376.340 18912505.125 10 0 60526 45000.00000 0 -12453994.229 -14499438.022 16911743.888 10 0 60526 45900.00000 0 -13119087.483 -16322581.297 14583016.639 10 0 60526 46800.00000 0 -13803372.909 -17810183.506 11971377.007 10 0 60526 47700.00000 0 -14450876.530 -18940764.118 9127398.577 10 0 60526 48600.00000 0 -15004186.957 -19705672.284 6106204.633 10 0 60526 49500.00000 0 -15407025.566 -20109249.618 2966406.072 10 0 60526 50400.00000 0 -15606788.107 -20168461.014 -231032.492 10 0 60526 51300.00000 0 -15556949.852 -19912008.581 -3423976.646 10 0 60526 52200.00000 0 -15219231.603 -19378965.654 -6550332.964 10 0 60526 53100.00000 0 -14565433.526 -18616988.240 -9549262.555 10 0 60526 54000.00000 0 -13578857.524 -17680179.402 -12362373.004 10 0 60526 54900.00000 0 -12255256.094 -16626697.003 -14934864.568 10 0 60526 55800.00000 0 -10603265.571 -15516206.361 -17216607.272 10 0 60526 56700.00000 0 -8644303.573 -14407286.058 -19163126.994 10 0 60526 57600.00000 0 -6411933.149 -13354897.227 -20736480.513 10 0 60526 58500.00000 0 -3950718.896 -12408023.904 -21906001.784 10 0 60526 59400.00000 0 -1314621.839 -11607584.677 -22648904.491 10 0 60526 60300.00000 0 1435000.582 -10984704.196 -22950728.864 10 0 60526 61200.00000 0 4231706.295 -10559417.679 -22805623.991 10 0 60526 62100.00000 0 7006495.910 -10339862.987 -22216460.182 10 0 60526 63000.00000 0 9690450.297 -10321993.996 -21194769.380 10 0 60526 63900.00000 0 12217368.445 -10489826.797 -19760515.025 10 0 60526 64800.00000 0 14526295.802 -10816207.518 -17941696.203 10 0 60526 65700.00000 0 16563837.898 -11264068.399 -15773794.174 10 0 60526 66600.00000 0 18286163.214 -11788118.024 -13299072.543 10 0 60526 67500.00000 0 19660612.444 -12336893.212 -10565745.269 10 0 60526 68400.00000 0 20666848.041 -12855084.798 -7627029.306 10 0 60526 69300.00000 0 21297497.306 -13286037.998 -4540101.057 10 0 60526 70200.00000 0 21558263.843 -13574320.865 -1364977.637 10 0 60526 71100.00000 0 21467504.548 -13668251.619 1836654.620 10 0 60526 72000.00000 0 21055291.823 -13522277.664 5002640.987 10 0 60526 72900.00000 0 20362002.281 -13099105.643 8071564.787 10 0 60526 73800.00000 0 19436492.860 -12371492.644 10983935.840 10 0 60526 74700.00000 0 18333942.280 -11323623.208 13683337.916 10 0 60526 75600.00000 0 17113449.385 -9952014.354 16117513.413 10 0 60526 76500.00000 0 15835489.547 -8265910.652 18239364.980 10 0 60526 77400.00000 0 14559335.717 -6287152.695 20007855.669 10 0 60526 78300.00000 0 13340551.676 -4049524.075 21388791.398 10 0 60526 79200.00000 0 12228661.507 -1597603.396 22355471.863 10 0 60526 80100.00000 0 11265091.719 1014831.913 22889198.481 10 0 60526 81000.00000 0 10481470.880 3726785.012 22979630.554 10 0 60526 81900.00000 0 9898356.732 6472321.780 22624983.483 10 0 60526 82800.00000 0 9524443.124 9183062.780 21832065.472 10 0 60526 83700.00000 0 9356279.385 11790783.624 20616151.889 10 0 60526 84600.00000 0 9378513.697 14230017.701 19000699.143 10 0 60526 85500.00000 0 9564650.472 16440554.807 17016902.656 10 0 60527 0.00000 0 9878290.461 18369733.011 14703106.483 10 0 60527 900.00000 0 10274802.446 19974430.280 12104073.319 10 0 60527 1800.00000 0 10703356.517 21222670.782 9270130.845 10 0 60527 2700.00000 0 11109234.602 22094782.316 6256205.563 10 0 60527 3600.00000 0 11436320.835 22584053.549 3120764.885 10 0 60527 4500.00000 0 11629666.857 22696864.077 -75313.772 10 0 60527 5400.00000 0 11638023.242 22452281.057 -3269924.986 10 0 60527 6300.00000 0 11416229.186 21881138.789 -6400945.343 10 0 60527 7200.00000 0 10927358.069 21024639.518 -9407447.373 10 0 60527 8100.00000 0 10144526.526 19932534.146 -12230893.058 10 0 60527 9000.00000 0 9052288.608 18660959.542 -14816282.759 10 0 60527 9900.00000 0 7647554.091 17270023.921 -17113236.160 10 0 60527 10800.00000 0 5939990.157 15821242.539 -19076983.229 10 0 60527 11700.00000 0 3951887.549 14374932.414 -20669245.079 10 0 60527 12600.00000 0 1717495.133 12987676.515 -21858986.862 10 0 60527 13500.00000 0 -718150.627 11709964.798 -22623027.601 10 0 60527 14400.00000 0 -3300853.315 10584111.828 -22946494.806 10 0 60527 15300.00000 0 -5969273.966 9642538.818 -22823114.928 10 0 60527 16200.00000 0 -8657254.366 8906492.278 -22255334.066 10 0 60527 17100.00000 0 -11296349.472 8385252.726 -21254266.747 10 0 60527 18000.00000 0 -13818463.342 8075866.074 -19839474.022 10 0 60527 18900.00000 0 -16158478.620 7963407.954 -18038575.566 10 0 60527 19800.00000 0 -18256769.972 8021768.610 -15886703.687 10 0 60527 20700.00000 0 -20061496.744 8214923.888 -13425810.376 10 0 60527 21600.00000 0 -21530579.534 8498637.232 -10703841.434 10 0 60527 22500.00000 0 -22633278.796 8822519.372 -7773794.330 10 0 60527 23400.00000 0 -23351310.396 9132357.347 -4692678.874 10 0 60527 24300.00000 0 -23679452.752 9372613.212 -1520401.609 10 0 60527 25200.00000 0 -23625621.625 9488985.856 1681403.700 10 0 60527 26100.00000 0 -23210411.121 9430926.896 4850576.076 10 0 60527 27000.00000 0 -22466121.868 9154003.930 7925634.138 10 0 60527 27900.00000 0 -21435318.754 8622011.126 10846966.022 10 0 60527 28800.00000 0 -20168980.113 7808738.145 13557979.433 10 0 60527 29700.00000 0 -18724316.965 6699322.947 16006189.899 10 0 60527 30600.00000 0 -17162354.289 5291131.676 18144226.924 10 0 60527 31500.00000 0 -15545375.681 3594128.646 19930739.478 10 0 60527 32400.00000 0 -13934337.901 1630720.653 21331184.543 10 0 60527 33300.00000 0 -12386362.574 -564918.504 22318484.697 10 0 60527 34200.00000 0 -10952408.644 -2948016.024 22873543.228 10 0 60527 35100.00000 0 -9675221.474 -5464813.293 22985607.824 10 0 60527 36000.00000 0 -8587642.783 -8054558.818 22652476.553 10 0 60527 36900.00000 0 -7711350.751 -10651799.871 21880542.437 10 0 60527 37800.00000 0 -7056081.926 -13188879.640 20684675.641 10 0 60527 38700.00000 0 -6619366.758 -15598538.092 19087945.035 10 0 60527 39600.00000 0 -6386789.567 -17816510.160 17121183.535 10 0 60527 40500.00000 0 -6332762.112 -19784014.674 14822404.467 10 0 60527 41400.00000 0 -6421778.644 -21450031.399 12236078.840 10 0 60527 42300.00000 0 -6610100.236 -22773271.809 9412286.166 10 0 60527 43200.00000 0 -6847797.987 -23723761.378 6405754.035 10 0 60527 44100.00000 0 -7081069.399 -24283966.928 3274804.034 10 0 60527 45000.00000 0 -7254730.268 -24449421.144 80223.858 10 0 60527 45900.00000 0 -7314776.543 -24228817.269 -3115912.760 10 0 60527 46800.00000 0 -7210907.163 -23643569.130 -6251455.259 10 0 60527 47700.00000 0 -6898900.031 -22726854.248 -9265390.558 10 0 60527 48600.00000 0 -6342739.114 -21522179.700 -12099038.086 10 0 60527 49500.00000 0 -5516400.936 -20081530.804 -14697201.385 10 0 60527 50400.00000 0 -4405222.934 -18463180.533 -17009252.797 10 0 60527 51300.00000 0 -3006793.914 -16729252.091 -18990129.194 10 0 60527 52200.00000 0 -1331326.993 -14943137.639 -20601218.538 10 0 60527 53100.00000 0 598502.455 -13166882.248 -21811119.282 10 0 60527 54000.00000 0 2748248.668 -11458643.577 -22596257.398 10 0 60527 54900.00000 0 5072889.418 -9870334.377 -22941348.741 10 0 60527 55800.00000 0 7518472.910 -8445547.052 -22839697.636 10 0 60527 56700.00000 0 10024149.358 -7217847.292 -22293325.937 10 0 60527 57600.00000 0 12524502.679 -6209508.003 -21312930.204 10 0 60527 58500.00000 0 14952084.957 -5430735.941 -19917668.084 10 0 60527 59400.00000 0 17240047.831 -4879422.416 -18134778.366 10 0 60527 60300.00000 0 19324760.851 -4541427.177 -15999042.502 10 0 60527 61200.00000 0 21148307.368 -4391381.912 -13552098.534 10 0 60527 62100.00000 0 22660753.791 -4393977.768 -10841621.351 10 0 60527 63000.00000 0 23822097.643 -4505680.843 -7920385.809 10 0 60527 63900.00000 0 24603813.489 -4676801.519 -4845231.680 10 0 60527 64800.00000 0 24989932.900 -4853828.686 -1675951.276 10 0 60527 65700.00000 0 24977614.330 -4981928.889 1525877.952 10 0 60527 66600.00000 0 24577180.387 -5007503.736 4698092.483 10 0 60527 67500.00000 0 23811622.383 -4880696.749 7779149.732 10 0 60527 68400.00000 0 22715594.385 -4557743.371 10709319.361 10 0 60527 69300.00000 0 21333940.233 -4003064.747 13431835.800 10 0 60527 70200.00000 0 19719816.270 -3191017.078 15893990.048 10 0 60527 71100.00000 0 17932488.980 -2107222.944 18048140.307 10 0 60527 72000.00000 0 16034899.877 -749428.749 19852622.829 10 0 60527 72900.00000 0 14091099.086 872147.849 21272546.542 10 0 60527 73800.00000 0 12163653.992 2734995.444 22280457.332 10 0 60527 74700.00000 0 10311139.948 4805004.666 22856860.347 10 0 60527 75600.00000 0 8585816.238 7037654.293 22990591.236 10 0 60527 76500.00000 0 7031582.613 9379639.778 22679029.897 10 0 60527 77400.00000 0 5682300.096 11770878.096 21928152.945 10 0 60527 78300.00000 0 4560544.720 14146807.434 20752423.768 10 0 60527 79200.00000 0 3676845.132 16440888.027 19174521.793 10 0 60527 80100.00000 0 3029435.230 18587201.860 17224915.267 10 0 60527 81000.00000 0 2604531.823 20523044.550 14941284.630 10 0 60527 81900.00000 0 2377125.636 22191402.577 12367806.235 10 0 60527 82800.00000 0 2312252.708 23543213.100 9554308.952 10 0 60527 83700.00000 0 2366693.015 24539312.158 6555318.707 10 0 60527 84600.00000 0 2491025.094 25151989.419 3429008.470 10 0 60527 85500.00000 0 2631950.119 25366083.639 236073.427 10 0 60528 0.00000 0 2734787.123 25179571.940 -2961446.810 10 0 60528 900.00000 0 2746033.389 24603626.913 -6101377.703 10 0 60528 1800.00000 0 2615880.686 23662138.397 -9122622.668 10 0 60528 2700.00000 0 2300579.782 22390718.793 -11966360.736 10 0 60528 3600.00000 0 1764551.430 20835233.212 -14577200.481 10 0 60528 4500.00000 0 982152.820 19049915.851 -16904268.462 10 0 60528 5400.00000 0 -60977.134 17095151.684 -18902209.726 10 0 60528 6300.00000 0 -1367052.367 15035016.824 -20532080.067 10 0 60528 7200.00000 0 -2925792.464 12934681.183 -21762111.970 10 0 60528 8100.00000 0 -4714609.919 10857782.821 -22568338.829 10 0 60528 9000.00000 0 -6699325.389 8863884.433 -22935065.053 10 0 60528 9900.00000 0 -8835382.002 7006118.841 -22855172.749 10 0 60528 10800.00000 0 -11069508.533 5329122.061 -22330259.101 10 0 60528 11700.00000 0 -13341762.296 3867340.218 -21370601.919 10 0 60528 12600.00000 0 -15587866.390 2643780.524 -19994954.266 10 0 60528 13500.00000 0 -17741743.536 1669257.644 -18230172.504 10 0 60528 14400.00000 0 -19738140.387 942165.614 -16110685.359 10 0 60528 15300.00000 0 -21515232.344 448783.219 -13677814.805 10 0 60528 16200.00000 0 -23017099.764 164098.088 -10978962.530 10 0 60528 17100.00000 0 -24195971.953 53112.819 -8066678.389 10 0 60528 18000.00000 0 -25014145.144 72576.067 -4997629.702 10 0 60528 18900.00000 0 -25445494.597 173063.727 -1831492.133 10 0 60528 19800.00000 0 -25476518.170 301320.633 1370215.579 10 0 60528 20700.00000 0 -25106868.576 402762.503 4545329.739 10 0 60528 21600.00000 0 -24349353.132 424031.385 7632248.915 10 0 60528 22500.00000 0 -23229402.227 315495.976 10571126.604 10 0 60528 23400.00000 0 -21784029.917 33590.943 13305026.213 10 0 60528 24300.00000 0 -20060331.103 -457103.512 15781016.345 10 0 60528 25200.00000 0 -18113578.832 -1182129.336 17951185.857 10 0 60528 26100.00000 0 -16005001.446 -2155838.262 19773559.994 10 0 60528 27000.00000 0 -13799332.184 -3380554.465 21212901.041 10 0 60528 27900.00000 0 -11562232.710 -4846247.473 22241379.256 10 0 60528 28800.00000 0 -9357696.847 -6530729.470 22839102.332 10 0 60528 29700.00000 0 -7245541.175 -8400369.570 22994494.185 10 0 60528 30600.00000 0 -5279085.293 -10411296.455 22704516.502 10 0 60528 31500.00000 0 -3503116.656 -12511040.736 21974729.106 10 0 60528 32400.00000 0 -1952223.111 -14640550.382 20819187.924 10 0 60528 33300.00000 0 -649561.223 -16736497.119 19260181.973 10 0 60528 34200.00000 0 393889.220 -18733779.523 17327813.599 10 0 60528 35100.00000 0 1179554.135 -20568120.039 15059428.859 10 0 60528 36000.00000 0 1720968.238 -22178648.860 12498907.728 10 0 60528 36900.00000 0 2042964.820 -23510367.516 9695826.483 10 0 60528 37800.00000 0 2180386.083 -24516389.438 6704507.255 10 0 60528 38700.00000 0 2176368.122 -25159863.454 3582972.106 10 0 60528 39600.00000 0 2080272.714 -25415498.867 391821.311 10 0 60528 40500.00000 0 1945353.250 -25270627.072 -2806942.717 10 0 60528 41400.00000 0 1826253.854 -24725753.819 -5951122.885 10 0 60528 42300.00000 0 1776448.104 -23794577.585 -8979542.314 10 0 60528 43200.00000 0 1845726.833 -22503471.993 -11833242.290 10 0 60528 44100.00000 0 2077842.644 -20890452.956 -14456639.079 10 0 60528 45000.00000 0 2508412.439 -19003673.191 -16798616.031 10 0 60528 45900.00000 0 3163168.354 -16899506.828 -18813528.775 10 0 60528 46800.00000 0 4056632.853 -14640304.364 -20462103.113 10 0 60528 47700.00000 0 5191275.579 -12291912.175 -21712207.381 10 0 60528 48600.00000 0 6557189.133 -9921060.778 -22539483.823 10 0 60528 49500.00000 0 8132298.793 -7592731.418 -22927826.366 10 0 60528 50400.00000 0 9883098.446 -5367611.444 -22869695.403 10 0 60528 51300.00000 0 11765882.641 -3299744.880 -22366263.488 10 0 60528 52200.00000 0 13728423.557 -1434476.188 -21427389.279 10 0 60528 53100.00000 0 15712022.791 193227.291 -20071420.442 10 0 60528 54000.00000 0 17653851.942 1560005.037 -18324829.694 10 0 60528 54900.00000 0 19489483.760 2654834.959 -16221691.419 10 0 60528 55800.00000 0 21155507.446 3479237.894 -13803009.502 10 0 60528 56700.00000 0 22592118.244 4046948.343 -11115910.011 10 0 60528 57600.00000 0 23745572.505 4383067.357 -8212715.009 10 0 60528 58500.00000 0 24570405.201 4522735.397 -5149916.238 10 0 60528 59400.00000 0 25031316.980 4509383.177 -1987069.349 10 0 60528 60300.00000 0 25104651.965 4392636.234 1214369.142 10 0 60528 61200.00000 0 24779404.902 4225963.321 4392238.881 10 0 60528 62100.00000 0 24057716.171 4064169.270 7484882.993 10 0 60528 63000.00000 0 22954834.823 3960839.097 10432341.996 10 0 60528 63900.00000 0 21498552.111 3965841.808 13177511.144 10 0 60528 64800.00000 0 19728130.004 4122999.403 15667239.139 10 0 60528 65700.00000 0 17692770.084 4468019.175 17853347.591 10 0 60528 66600.00000 0 15449686.990 5026776.163 19693552.419 10 0 60528 67500.00000 0 13061866.616 5814017.633 21152270.509 10 0 60528 68400.00000 0 10595601.830 6832543.830 22201297.320 10 0 60528 69300.00000 0 8117907.252 8072899.447 22820343.487 10 0 60528 70200.00000 0 5693919.226 9513589.128 22997421.151 10 0 60528 71100.00000 0 3384387.369 11121808.846 22729073.286 10 0 60528 72000.00000 0 1243360.229 12854663.778 22020441.974 10 0 60528 72900.00000 0 -683840.484 14660823.359 20885174.268 10 0 60528 73800.00000 0 -2362274.396 16482546.161 19345166.950 10 0 60528 74700.00000 0 -3768598.076 18257991.808 17430154.260 10 0 60528 75600.00000 0 -4891792.020 19923725.041 15177145.376 10 0 60528 76500.00000 0 -5733369.237 21417308.677 12629721.161 10 0 60528 77400.00000 0 -6307056.991 22679877.894 9837202.422 10 0 60528 78300.00000 0 -6637965.051 23658588.540 6853704.534 10 0 60528 79200.00000 0 -6761275.327 24308836.714 3737095.672 10 0 60528 80100.00000 0 -6720507.921 24596155.852 547878.238 10 0 60528 81000.00000 0 -6565436.727 24497710.586 -2651985.134 10 0 60528 81900.00000 0 -6349742.812 24003323.203 -5800278.109 10 0 60528 82800.00000 0 -6128505.287 23115988.000 -8835745.760 10 0 60528 83700.00000 0 -5955636.612 21851850.355 -11699293.928 10 0 60528 84600.00000 0 -5881371.983 20239649.923 -14335148.563 10 0 60528 85500.00000 0 -5949920.374 18319650.196 -16691951.486 10 0 60529 0.00000 0 -6197378.088 16142098.657 -18723770.117 10 0 60529 900.00000 0 -6649994.769 13765280.371 -20391001.676 10 0 60529 1800.00000 0 -7322866.293 11253249.259 -21661150.918 10 0 60529 2700.00000 0 -8219111.587 8673328.176 -22509469.400 10 0 60529 3600.00000 0 -9329569.030 6093485.267 -22919440.750 10 0 60529 4500.00000 0 -10633026.346 3579695.316 -22883103.515 10 0 60529 5400.00000 0 -12096975.034 1193396.534 -22401205.159 10 0 60529 6300.00000 0 -13678858.085 -1010851.185 -21483184.356 10 0 60529 7200.00000 0 -15327758.746 -2987409.117 -20146982.173 10 0 60529 8100.00000 0 -16986459.350 -4701219.103 -18418686.106 10 0 60529 9000.00000 0 -18593783.548 -6129011.232 -16332014.290 10 0 60529 9900.00000 0 -20087123.189 -7260010.738 -13927650.342 10 0 60529 10800.00000 0 -21405043.324 -8096116.273 -11252442.330 10 0 60529 11700.00000 0 -22489855.519 -8651544.154 -8358482.008 10 0 60529 12600.00000 0 -23290051.033 -8951955.676 -5302082.958 10 0 60529 13500.00000 0 -23762491.485 -9033106.461 -2142678.202 10 0 60529 14400.00000 0 -23874265.035 -8939076.850 1058340.573 10 0 60529 15300.00000 0 -23604130.315 -8720159.868 4238818.965 10 0 60529 16200.00000 0 -22943487.985 -8430497.459 7337047.228 10 0 60529 17100.00000 0 -21896839.718 -8125565.938 10292955.419 10 0 60529 18000.00000 0 -20481716.045 -7859617.516 13049273.063 10 0 60529 18900.00000 0 -18728076.685 -7683186.188 15552631.223 10 0 60529 19800.00000 0 -16677208.902 -7640763.013 17754586.298 10 0 60529 20700.00000 0 -14380170.042 -7768738.416 19612546.606 10 0 60529 21600.00000 0 -11895839.073 -8093697.567 21090585.014 10 0 60529 22500.00000 0 -9288657.606 -8631140.020 22160123.142 10 0 60529 23400.00000 0 -6626153.421 -9384677.028 22800475.115 10 0 60529 24300.00000 0 -3976348.017 -10345740.163 22999241.427 10 0 60529 25200.00000 0 -1405154.164 -11493813.803 22752546.080 10 0 60529 26100.00000 0 1026130.256 -12797182.513 22065112.813 10 0 60529 27000.00000 0 3263129.900 -14214163.197 20950178.893 10 0 60529 27900.00000 0 5260406.956 -15694771.945 19429247.686 10 0 60529 28800.00000 0 6983101.091 -17182757.449 17531683.894 10 0 60529 29700.00000 0 8408127.225 -18617917.494 15294158.138 10 0 60529 30600.00000 0 9524881.951 -19938602.995 12759950.255 10 0 60529 31500.00000 0 10335429.476 -21084305.707 9978123.441 10 0 60529 32400.00000 0 10854159.471 -21998221.702 7002583.959 10 0 60529 33300.00000 0 11106931.128 -22629683.137 3891043.568 10 0 60529 34200.00000 0 11129739.285 -22936355.599 703904.153 10 0 60529 35100.00000 0 10966958.750 -22886107.728 -2496914.147 10 0 60529 36000.00000 0 10669240.939 -22458473.058 -5649178.470 10 0 60529 36900.00000 0 10291152.001 -21645640.897 -8691558.529 10 0 60529 37800.00000 0 9888652.858 -20452932.799 -11564827.314 10 0 60529 38700.00000 0 9516528.599 -18898742.824 -14213022.945 10 0 60529 39600.00000 0 9225877.083 -17013942.542 -16584548.045 10 0 60529 40500.00000 0 9061764.232 -14840774.463 -18633184.261 10 0 60529 41400.00000 0 9061146.502 -12431279.327 -20319001.341 10 0 60529 42300.00000 0 9251149.650 -9845322.527 -21609142.366 10 0 60529 43200.00000 0 9647777.703 -7148301.905 -22478469.333 10 0 60529 44100.00000 0 10255107.671 -4408632.607 -22910056.285 10 0 60529 45000.00000 0 11065004.783 -1695114.059 -22895520.210 10 0 60529 45900.00000 0 12057370.850 925711.025 -22435183.347 10 0 60529 46800.00000 0 13200915.600 3392095.524 -21538063.864 10 0 60529 47700.00000 0 14454418.609 5649419.005 -20221695.323 10 0 60529 48600.00000 0 15768428.559 7652214.304 -18511778.752 10 0 60529 49500.00000 0 17087328.008 9365805.864 -16441674.434 10 0 60529 50400.00000 0 18351676.284 10767492.529 -14051743.776 10 0 60529 51300.00000 0 19500731.367 11847226.891 -11388554.560 10 0 60529 52200.00000 0 20475044.084 12607764.578 -8503965.622 10 0 60529 53100.00000 0 21219014.862 13064279.297 -5454109.483 10 0 60529 54000.00000 0 21683305.098 13243462.006 -2298293.412 10 0 60529 54900.00000 0 21827001.417 13182144.320 902159.011 10 0 60529 55800.00000 0 21619441.748 12925506.157 4085102.627 10 0 60529 56700.00000 0 21041626.630 12524944.995 7188778.053 10 0 60529 57600.00000 0 20087156.756 12035697.954 10153007.939 10 0 60529 58500.00000 0 18762657.850 11514318.004 12920358.882 10 0 60529 59400.00000 0 17087675.467 11016111.190 15437246.812 10 0 60529 60300.00000 0 15094044.412 10592642.908 17654965.068 10 0 60529 61200.00000 0 12824759.208 10289417.958 19530616.170 10 0 60529 62100.00000 0 10332392.525 10143831.335 21027930.384 10 0 60529 63000.00000 0 7677126.805 10183475.205 22117956.523 10 0 60529 63900.00000 0 4924480.016 10424872.474 22779612.818 10 0 60529 64800.00000 0 2142818.631 10872689.564 23000088.291 10 0 60529 65700.00000 0 -599240.570 11519461.273 22775087.684 10 0 60529 66600.00000 0 -3235433.888 12345839.427 22108915.600 10 0 60529 67500.00000 0 -5704353.133 13321355.577 21014398.243 10 0 60529 68400.00000 0 -7951745.068 14405666.825 19512643.792 10 0 60529 69300.00000 0 -9932513.837 15550233.859 17632645.206 10 0 60529 70200.00000 0 -11612344.411 16700362.305 15410731.980 10 0 60529 71100.00000 0 -12968880.288 17797523.179 12889880.083 10 0 60529 72000.00000 0 -13992406.828 18781856.178 10118892.092 10 0 60529 72900.00000 0 -14686011.835 19594751.431 7151462.075 10 0 60529 73800.00000 0 -15065216.645 20181401.480 4045142.308 10 0 60529 74700.00000 0 -15157093.000 20493215.821 860231.157 10 0 60529 75600.00000 0 -14998902.712 20489995.538 -2341396.616 10 0 60529 76500.00000 0 -14636317.337 20141775.193 -5497494.357 10 0 60529 77400.00000 0 -14121293.109 19430252.669 -8546658.962 10 0 60529 78300.00000 0 -13509691.229 18349744.935 -11429532.887 10 0 60529 79200.00000 0 -12858744.714 16907627.512 -14089968.476 10 0 60529 80100.00000 0 -12224479.761 15124237.307 -16476130.902 10 0 60529 81000.00000 0 -11659201.627 13032241.266 -18541517.298 10 0 60529 81900.00000 0 -11209152.431 10675495.918 -20245871.408 10 0 60529 82800.00000 0 -10912440.926 8107444.619 -21555975.202 10 0 60529 83700.00000 0 -10797332.671 5389118.857 -22446301.574 10 0 60529 84600.00000 0 -10880973.597 2586826.742 -22899515.113 10 0 60529 85500.00000 0 -11168601.466 -230374.975 -22906811.070 99